TimeEST,TemperatureF,Dew PointF,Humidity,Sea Level PressureIn,VisibilityMPH,Wind Direction,Wind SpeedMPH,Gust SpeedMPH,PrecipitationIn,Events,Conditions,WindDirDegrees,DateUTC
12:16 AM,3.2,-2.2,78,29.83,10.0,Calm,Calm,-,N/A,,Overcast,0,2013-01-04 05:16:00
1:35 AM,5.0,-0.4,78,29.81,7.0,Calm,Calm,-,0.00,Snow,Light Snow,0,2013-01-04 06:35:00
1:52 AM,6.1,-0.0,76,29.89,5.0,Calm,Calm,-,0.00,Snow,Light Snow,0,2013-01-04 06:52:00
2:52 AM,1.9,-2.0,83,29.89,9.0,Calm,Calm,-,0.00,,Overcast,0,2013-01-04 07:52:00
3:03 AM,3.2,-0.4,85,29.80,10.0,Calm,Calm,-,N/A,,Overcast,0,2013-01-04 08:03:00
3:52 AM,5.0,1.0,84,29.88,4.0,Calm,Calm,-,0.00,Snow,Light Snow,0,2013-01-04 08:52:00
4:34 AM,6.8,1.4,79,29.79,6.0,Calm,Calm,-,0.00,Snow,Light Snow,0,2013-01-04 09:34:00
4:52 AM,7.0,1.9,80,29.86,7.0,Calm,Calm,-,0.00,Snow,Light Snow,0,2013-01-04 09:52:00
5:52 AM,8.1,3.0,80,29.86,6.0,Calm,Calm,-,0.00,Snow,Light Snow,0,2013-01-04 10:52:00
6:43 AM,10.4,5.0,79,29.78,9.0,Calm,Calm,-,0.00,,Overcast,0,2013-01-04 11:43:00
6:52 AM,10.0,5.0,80,29.86,9.0,Calm,Calm,-,0.00,,Overcast,0,2013-01-04 11:52:00
6:59 AM,10.4,6.8,85,29.77,9.0,Calm,Calm,-,N/A,,Overcast,0,2013-01-04 11:59:00
7:52 AM,12.0,7.0,80,29.83,6.0,Calm,Calm,-,0.00,,Haze,0,2013-01-04 12:52:00
8:02 AM,12.2,6.8,79,29.74,7.0,Calm,Calm,-,N/A,,Overcast,0,2013-01-04 13:02:00
8:52 AM,12.0,7.0,80,29.83,10.0,Calm,Calm,-,N/A,,Overcast,0,2013-01-04 13:52:00
9:52 AM,18.0,10.9,74,29.80,10.0,Calm,Calm,-,N/A,,Overcast,0,2013-01-04 14:52:00
10:52 AM,27.0,17.1,66,29.75,10.0,Variable,4.6,-,N/A,,Overcast,0,2013-01-04 15:52:00
11:43 AM,30.2,19.4,64,29.66,10.0,SW,15.0,26.5,N/A,,Overcast,230,2013-01-04 16:43:00
11:52 AM,30.0,19.0,64,29.72,10.0,SW,15.0,21.9,N/A,,Overcast,220,2013-01-04 16:52:00
12:52 PM,28.9,19.0,67,29.71,10.0,SSW,5.8,-,N/A,,Overcast,210,2013-01-04 17:52:00
1:52 PM,30.0,19.9,66,29.70,10.0,Calm,Calm,-,N/A,,Overcast,0,2013-01-04 18:52:00
2:06 PM,28.4,19.4,69,29.64,10.0,Calm,Calm,-,N/A,,Overcast,0,2013-01-04 19:06:00
2:52 PM,30.9,21.0,67,29.71,10.0,Variable,4.6,-,N/A,,Overcast,0,2013-01-04 19:52:00
3:01 PM,30.2,21.2,69,29.64,10.0,Variable,6.9,-,N/A,,Overcast,0,2013-01-04 20:01:00
3:37 PM,30.2,21.2,69,29.65,10.0,West,4.6,-,N/A,,Overcast,270,2013-01-04 20:37:00
3:49 PM,30.2,21.2,69,29.64,10.0,Variable,5.8,-,N/A,,Overcast,0,2013-01-04 20:49:00
3:52 PM,30.9,21.0,67,29.71,9.0,WNW,8.1,-,N/A,,Overcast,290,2013-01-04 20:52:00
4:00 PM,30.2,21.2,69,29.64,8.0,Variable,5.8,-,0.00,Snow,Light Snow,0,2013-01-04 21:00:00
4:52 PM,30.0,21.9,72,29.71,7.0,Variable,5.8,-,0.00,Snow,Light Snow,0,2013-01-04 21:52:00
5:25 PM,30.2,23.0,75,29.65,6.0,Variable,4.6,-,0.00,Snow,Light Snow,0,2013-01-04 22:25:00
5:52 PM,30.0,23.0,75,29.72,5.0,West,4.6,-,0.00,Snow,Light Snow,270,2013-01-04 22:52:00
6:52 PM,30.9,23.0,72,29.72,8.0,Variable,4.6,-,0.00,Snow,Light Snow,0,2013-01-04 23:52:00
8:37 PM,30.2,23.0,75,29.66,8.0,WNW,6.9,-,0.00,Snow,Light Snow,290,2013-01-05 01:37:00
8:52 PM,30.0,23.0,75,29.73,5.0,Variable,4.6,-,0.00,Snow,Light Snow,0,2013-01-05 01:52:00
9:00 PM,30.2,23.0,75,29.67,5.0,WNW,5.8,-,0.00,Snow,Light Snow,290,2013-01-05 02:00:00
9:52 PM,30.9,21.9,69,29.71,6.0,WNW,6.9,-,0.00,Snow,Light Snow,290,2013-01-05 02:52:00
10:52 PM,30.0,23.0,75,29.70,10.0,Calm,Calm,-,0.00,,Overcast,0,2013-01-05 03:52:00
11:52 PM,30.9,21.9,69,29.70,5.0,West,3.5,16.1,0.00,Snow,Light Snow,280,2013-01-05 04:52:00